• In Uzbekistan
  • List of Countries
  • For 7 days
  • Water Temperature
  • Satellite Maps
  • Weather Map
  • Weather Widgets
  • user-avatar
    Login

    Hourly Weather Stepanakert

    Today, 28 May, Sunday

    Time Temperature Precipitation Wind Pressure Humidity
    00:00 +14°C° 0.2 mm 1 mps 690 mmHg 86%
    01:00 +13°C° 0 mm 1 mps 690 mmHg 86%
    02:00 +13°C° 0 mm 1 mps 690 mmHg 86%
    03:00 +13°C° 0 mm 1 mps 690 mmHg 80%
    04:00 +14°C° 0 mm 1 mps 690 mmHg 76%
    05:00 +15°C° 0 mm 1 mps 691 mmHg 73%
    06:00 +18°C° 0 mm 1 mps 691 mmHg 69%
    07:00 +20°C° 0 mm 1 mps 692 mmHg 60%
    08:00 +21°C° 0 mm 2 mps 692 mmHg 50%
    09:00 +24°C° 0 mm 2 mps 692 mmHg 42%
    10:00 +25°C° 0 mm 2 mps 692 mmHg 39%
    11:00 +26°C° 0 mm 3 mps 692 mmHg 37%
    12:00 +27°C° 0 mm 3 mps 692 mmHg 35%
    13:00 +27°C° 0 mm 3 mps 691 mmHg 35%
    14:00 +27°C° 0 mm 3 mps 691 mmHg 34%
    15:00 +28°C° 0 mm 3 mps 691 mmHg 34%
    16:00 +27°C° 0.1 mm 3 mps 691 mmHg 39%
    17:00 +26°C° 0.1 mm 2 mps 691 mmHg 44%
    18:00 +24°C° 0.1 mm 2 mps 692 mmHg 49%
    19:00 +21°C° 0.2 mm 2 mps 692 mmHg 57%
    20:00 +18°C° 0.2 mm 2 mps 692 mmHg 65%
    21:00 +16°C° 0.2 mm 2 mps 692 mmHg 72%
    22:00 +15°C° 0.1 mm 1 mps 693 mmHg 74%
    23:00 +15°C° 0.1 mm 1 mps 693 mmHg 75%

    Tomorrow, 29 May, Monday

    Time Temperature Precipitation Wind Pressure Humidity
    00:00 +14°C° 0.1 mm 1 mps 693 mmHg 76%
    01:00 +14°C° 0 mm 1 mps 694 mmHg 76%
    02:00 +13°C° 0 mm 1 mps 694 mmHg 76%
    03:00 +13°C° 0 mm 1 mps 694 mmHg 76%
    04:00 +14°C° 0 mm 1 mps 694 mmHg 72%
    05:00 +16°C° 0 mm 1 mps 695 mmHg 68%
    06:00 +18°C° 0 mm 1 mps 695 mmHg 65%
    07:00 +20°C° 0 mm 1 mps 695 mmHg 60%
    08:00 +20°C° 0 mm 2 mps 696 mmHg 54%
    09:00 +23°C° 0 mm 2 mps 696 mmHg 49%
    10:00 +24°C° 0 mm 2 mps 696 mmHg 47%
    11:00 +25°C° 0 mm 3 mps 696 mmHg 46%
    12:00 +26°C° 0 mm 3 mps 696 mmHg 44%
    13:00 +26°C° 0.3 mm 3 mps 696 mmHg 45%
    14:00 +26°C° 0.3 mm 3 mps 695 mmHg 46%
    15:00 +27°C° 0.3 mm 4 mps 695 mmHg 47%
    16:00 +25°C° 0.2 mm 4 mps 695 mmHg 50%
    17:00 +23°C° 0.2 mm 4 mps 695 mmHg 54%
    18:00 +22°C° 0.2 mm 4 mps 695 mmHg 57%
    19:00 +20°C° 0 mm 3 mps 695 mmHg 64%
    20:00 +17°C° 0 mm 2 mps 695 mmHg 70%
    21:00 +15°C° 0 mm 2 mps 695 mmHg 77%
    22:00 +14°C° 0 mm 2 mps 695 mmHg 79%
    23:00 +14°C° 0 mm 1 mps 695 mmHg 81%

    Day after tomorrow, 30 May, Tuesday

    Time Temperature Precipitation Wind Pressure Humidity
    00:00 +13°C° 0 mm 1 mps 695 mmHg 83%
    01:00 +13°C° 0 mm 1 mps 695 mmHg 84%
    02:00 +12°C° 0 mm 1 mps 694 mmHg 85%
    03:00 +12°C° 0 mm 1 mps 694 mmHg 86%
    04:00 +13°C° 0 mm 1 mps 694 mmHg 81%
    05:00 +15°C° 0 mm 1 mps 695 mmHg 77%
    06:00 +16°C° 0 mm 1 mps 695 mmHg 73%
    07:00 +19°C° 0 mm 1 mps 695 mmHg 65%
    08:00 +21°C° 0 mm 1 mps 695 mmHg 57%
    09:00 +23°C° 0 mm 2 mps 695 mmHg 49%
    10:00 +24°C° 0 mm 2 mps 695 mmHg 46%
    11:00 +26°C° 0 mm 2 mps 694 mmHg 42%
    12:00 +27°C° 0 mm 3 mps 694 mmHg 39%
    13:00 +27°C° 0 mm 3 mps 694 mmHg 39%
    14:00 +28°C° 0 mm 2 mps 693 mmHg 38%
    15:00 +28°C° 0 mm 2 mps 693 mmHg 38%
    16:00 +27°C° 0 mm 2 mps 692 mmHg 42%
    17:00 +27°C° 0 mm 2 mps 692 mmHg 47%
    18:00 +26°C° 0 mm 1 mps 692 mmHg 51%
    19:00 +23°C° 0 mm 1 mps 692 mmHg 58%
    20:00 +20°C° 0 mm 1 mps 692 mmHg 65%
    21:00 +18°C° 0 mm 1 mps 692 mmHg 72%
    22:00 +18°C° 0 mm 1 mps 692 mmHg 70%
    23:00 +17°C° 0 mm 2 mps 692 mmHg 68%

    31 May, Wednesday

    Time Temperature Precipitation Wind Pressure Humidity
    00:00 +17°C° 0 mm 2 mps 692 mmHg 66%
    01:00 +17°C° 0 mm 2 mps 691 mmHg 65%
    02:00 +16°C° 0 mm 2 mps 691 mmHg 65%
    03:00 +16°C° 0 mm 2 mps 691 mmHg 65%
    04:00 +17°C° 0 mm 2 mps 692 mmHg 61%
    05:00 +18°C° 0 mm 2 mps 692 mmHg 58%
    06:00 +19°C° 0 mm 2 mps 692 mmHg 54%
    07:00 +23°C° 0 mm 2 mps 693 mmHg 47%
    08:00 +25°C° 0 mm 2 mps 693 mmHg 40%
    09:00 +27°C° 0 mm 2 mps 693 mmHg 34%
    10:00 +28°C° 0 mm 2 mps 693 mmHg 32%
    11:00 +29°C° 0 mm 3 mps 692 mmHg 30%
    12:00 +30°C° 0 mm 3 mps 692 mmHg 29%
    13:00 +30°C° 0 mm 3 mps 691 mmHg 30%
    14:00 +30°C° 0 mm 3 mps 691 mmHg 31%
    15:00 +30°C° 0 mm 3 mps 690 mmHg 32%
    16:00 +29°C° 0.1 mm 3 mps 690 mmHg 37%
    17:00 +28°C° 0.1 mm 3 mps 690 mmHg 43%
    18:00 +26°C° 0.1 mm 3 mps 689 mmHg 48%
    19:00 +24°C° 0.2 mm 3 mps 689 mmHg 56%
    20:00 +20°C° 0.2 mm 2 mps 689 mmHg 64%
    21:00 +17°C° 0.2 mm 2 mps 689 mmHg 71%
    22:00 +17°C° 0.2 mm 2 mps 689 mmHg 73%
    23:00 +16°C° 0.2 mm 1 mps 689 mmHg 75%

    1 June, Thursday

    Time Temperature Precipitation Wind Pressure Humidity
    00:00 +16°C° 0.2 mm 1 mps 689 mmHg 76%
    01:00 +15°C° 0.2 mm 1 mps 689 mmHg 76%
    02:00 +15°C° 0.2 mm 1 mps 689 mmHg 77%
    03:00 +15°C° 0.2 mm 2 mps 689 mmHg 77%
    04:00 +16°C° 0.1 mm 1 mps 689 mmHg 73%
    05:00 +18°C° 0.1 mm 1 mps 690 mmHg 70%
    06:00 +19°C° 0.1 mm 1 mps 690 mmHg 66%
    07:00 +20°C° 0 mm 2 mps 690 mmHg 58%
    08:00 +23°C° 0 mm 2 mps 690 mmHg 51%
    09:00 +25°C° 0 mm 2 mps 691 mmHg 43%
    10:00 +26°C° 0.1 mm 3 mps 690 mmHg 41%
    11:00 +27°C° 0.1 mm 3 mps 690 mmHg 38%
    12:00 +28°C° 0.1 mm 3 mps 690 mmHg 36%
    13:00 +28°C° 0.3 mm 3 mps 689 mmHg 37%
    14:00 +28°C° 0.3 mm 3 mps 689 mmHg 37%
    15:00 +28°C° 0.3 mm 3 mps 688 mmHg 37%
    16:00 +27°C° 0.4 mm 3 mps 688 mmHg 42%
    17:00 +26°C° 0.4 mm 2 mps 688 mmHg 46%
    18:00 +25°C° 0.4 mm 2 mps 688 mmHg 50%
    19:00 +23°C° 0.4 mm 2 mps 689 mmHg 57%
    20:00 +19°C° 0.4 mm 2 mps 689 mmHg 64%
    21:00 +18°C° 0.4 mm 1 mps 689 mmHg 71%
    22:00 +16°C° 0.2 mm 1 mps 689 mmHg 71%
    23:00 +16°C° 0.2 mm 1 mps 689 mmHg 72%

    2 June, Friday

    Time Temperature Precipitation Wind Pressure Humidity
    00:00 +16°C° 0.2 mm 1 mps 689 mmHg 73%
    01:00 +15°C° 0.1 mm 1 mps 689 mmHg 74%
    02:00 +14°C° 0.1 mm 1 mps 689 mmHg 76%
    03:00 +14°C° 0.1 mm 1 mps 689 mmHg 77%
    04:00 +15°C° 0 mm 1 mps 689 mmHg 73%
    05:00 +16°C° 0 mm 1 mps 690 mmHg 70%
    06:00 +19°C° 0 mm 1 mps 691 mmHg 66%
    07:00 +21°C° 0 mm 1 mps 691 mmHg 60%
    08:00 +21°C° 0 mm 2 mps 691 mmHg 53%
    09:00 +24°C° 0 mm 2 mps 692 mmHg 47%
    10:00 +25°C° 0.1 mm 2 mps 691 mmHg 45%
    11:00 +26°C° 0.1 mm 3 mps 691 mmHg 43%
    12:00 +26°C° 0.1 mm 3 mps 691 mmHg 41%
    13:00 +27°C° 0.4 mm 3 mps 691 mmHg 41%
    14:00 +27°C° 0.4 mm 2 mps 691 mmHg 41%
    15:00 +27°C° 0.4 mm 2 mps 691 mmHg 41%
    16:00 +26°C° 0.3 mm 2 mps 691 mmHg 44%
    17:00 +26°C° 0.3 mm 2 mps 691 mmHg 46%
    18:00 +25°C° 0.3 mm 2 mps 692 mmHg 49%
    19:00 +23°C° 0.2 mm 2 mps 692 mmHg 56%
    20:00 +19°C° 0.2 mm 2 mps 692 mmHg 63%
    21:00 +17°C° 0.2 mm 2 mps 692 mmHg 70%
    22:00 +16°C° 0 mm 2 mps 692 mmHg 71%
    23:00 +16°C° 0 mm 1 mps 692 mmHg 71%
    Show more